Tracking 30970 objects as of 3-Jul-2025
HD Live streaming from Space Station
objects crossing your sky now

STARLINK-5009

Track STARLINK-5009 now!
10-day predictions
STARLINK-5009 is classified as:


NORAD ID: 53928
Int'l Code: 2022-119AU
Perigee: 546.0 km
Apogee: 547.8 km
Inclination: 53.2 °
Period: 95.4 minutes
Semi major axis: 6917 km
RCS: Unknown
Launch date: September 24, 2022
Source: United States (US)
Launch site: AIR FORCE EASTERN TEST RANGE (AFETR)
Your satellite tracking list
STARLINK-1722
Track 1 satellite(s)




NASA's NSSDC Master Catalog

Two Line Element Set (TLE):
1 53928U 22119AU  25183.74626617 -.00000294  00000-0 -40537-6 0  9992
2 53928  53.2193 346.0595 0001267  90.4686 269.6452 15.08835850154235
Source of the keplerian elements: AFSPC